Hourly Weather Bolshoe Vasilevo

Today, 1 August, Sunday

Time Temperature Precipitation Wind Pressure Humidity
00:00 +16°C° 0 mm 2 mps 744 mmHg 86%
01:00 +15°C° 0 mm 2 mps 744 mmHg 88%
02:00 +15°C° 0 mm 2 mps 744 mmHg 89%
03:00 +15°C° 0 mm 2 mps 745 mmHg 88%
04:00 +16°C° 0 mm 2 mps 745 mmHg 86%
05:00 +16°C° 0 mm 2 mps 745 mmHg 85%
06:00 +18°C° 0 mm 2 mps 745 mmHg 76%
07:00 +20°C° 0 mm 2 mps 745 mmHg 68%
08:00 +22°C° 0 mm 3 mps 745 mmHg 59%
09:00 +24°C° 0 mm 3 mps 745 mmHg 56%
10:00 +23°C° 0 mm 4 mps 745 mmHg 53%
11:00 +25°C° 0 mm 4 mps 745 mmHg 50%
12:00 +23°C° 0 mm 4 mps 745 mmHg 59%
13:00 +21°C° 0 mm 4 mps 745 mmHg 69%
14:00 +20°C° 0 mm 4 mps 745 mmHg 79%
15:00 +21°C° 0 mm 4 mps 745 mmHg 76%
16:00 +22°C° 0 mm 4 mps 744 mmHg 73%
17:00 +23°C° 0 mm 4 mps 744 mmHg 69%
18:00 +21°C° 0.1 mm 3 mps 744 mmHg 77%
19:00 +20°C° 0.1 mm 3 mps 744 mmHg 85%
20:00 +19°C° 0.1 mm 2 mps 744 mmHg 93%
21:00 +18°C° 0.2 mm 2 mps 744 mmHg 94%
22:00 +18°C° 0.2 mm 2 mps 744 mmHg 96%
23:00 +18°C° 0.2 mm 2 mps 744 mmHg 97%

Tomorrow, 2 August, Monday

Time Temperature Precipitation Wind Pressure Humidity
00:00 +17°C° 0 mm 2 mps 744 mmHg 97%
01:00 +17°C° 0 mm 2 mps 744 mmHg 97%
02:00 +17°C° 0 mm 2 mps 744 mmHg 97%
03:00 +17°C° 0 mm 2 mps 744 mmHg 96%
04:00 +17°C° 0 mm 2 mps 744 mmHg 95%
05:00 +18°C° 0 mm 1 mps 744 mmHg 94%
06:00 +20°C° 0 mm 1 mps 744 mmHg 86%
07:00 +22°C° 0 mm 1 mps 744 mmHg 78%
08:00 +24°C° 0 mm 2 mps 744 mmHg 70%
09:00 +26°C° 0 mm 2 mps 744 mmHg 61%
10:00 +28°C° 0 mm 2 mps 744 mmHg 52%
11:00 +29°C° 0 mm 2 mps 743 mmHg 43%
12:00 +30°C° 0 mm 2 mps 743 mmHg 45%
13:00 +30°C° 0 mm 3 mps 742 mmHg 46%
14:00 +30°C° 0 mm 3 mps 741 mmHg 47%
15:00 +28°C° 1 mm 3 mps 741 mmHg 60%
16:00 +26°C° 1 mm 3 mps 740 mmHg 72%
17:00 +24°C° 1 mm 3 mps 740 mmHg 85%
18:00 +22°C° 0.3 mm 3 mps 740 mmHg 88%
19:00 +21°C° 0.3 mm 2 mps 740 mmHg 92%
20:00 +20°C° 0.3 mm 2 mps 739 mmHg 96%
21:00 +19°C° 0.2 mm 2 mps 739 mmHg 96%
22:00 +19°C° 0.2 mm 3 mps 739 mmHg 96%
23:00 +19°C° 0.2 mm 3 mps 739 mmHg 96%

Day after tomorrow, 3 August, Tuesday

Time Temperature Precipitation Wind Pressure Humidity
00:00 +19°C° 0.7 mm 3 mps 739 mmHg 97%
01:00 +19°C° 0.7 mm 3 mps 738 mmHg 97%
02:00 +19°C° 0.7 mm 2 mps 738 mmHg 98%
03:00 +19°C° 0.3 mm 2 mps 739 mmHg 97%
04:00 +18°C° 0.3 mm 3 mps 739 mmHg 97%
05:00 +18°C° 0.3 mm 3 mps 739 mmHg 97%
06:00 +18°C° 0 mm 3 mps 740 mmHg 94%
07:00 +18°C° 0 mm 3 mps 740 mmHg 92%
08:00 +18°C° 0 mm 3 mps 740 mmHg 90%
09:00 +18°C° 0 mm 3 mps 741 mmHg 88%
10:00 +18°C° 0 mm 3 mps 742 mmHg 85%
11:00 +18°C° 0 mm 3 mps 742 mmHg 83%
12:00 +18°C° 0 mm 3 mps 742 mmHg 82%
13:00 +19°C° 0 mm 3 mps 743 mmHg 80%
14:00 +19°C° 0 mm 3 mps 743 mmHg 78%
15:00 +19°C° 0.4 mm 3 mps 743 mmHg 80%
16:00 +19°C° 0.4 mm 3 mps 743 mmHg 82%
17:00 +19°C° 0.4 mm 3 mps 744 mmHg 84%
18:00 +18°C° 0.1 mm 3 mps 744 mmHg 87%
19:00 +17°C° 0.1 mm 3 mps 744 mmHg 90%
20:00 +16°C° 0.1 mm 2 mps 745 mmHg 92%
21:00 +15°C° 0 mm 2 mps 745 mmHg 92%
22:00 +14°C° 0 mm 2 mps 745 mmHg 92%
23:00 +14°C° 0 mm 2 mps 746 mmHg 92%

4 August, Wednesday

Time Temperature Precipitation Wind Pressure Humidity
00:00 +13°C° 0 mm 2 mps 746 mmHg 93%
01:00 +13°C° 0 mm 2 mps 746 mmHg 93%
02:00 +13°C° 0 mm 2 mps 747 mmHg 93%
03:00 +13°C° 0 mm 2 mps 747 mmHg 93%
04:00 +13°C° 0 mm 1 mps 747 mmHg 93%
05:00 +13°C° 0 mm 1 mps 748 mmHg 93%
06:00 +15°C° 0 mm 2 mps 748 mmHg 82%
07:00 +16°C° 0 mm 2 mps 749 mmHg 71%
08:00 +18°C° 0 mm 2 mps 749 mmHg 60%
09:00 +19°C° 0 mm 2 mps 749 mmHg 55%
10:00 +19°C° 0 mm 2 mps 749 mmHg 50%
11:00 +20°C° 0 mm 2 mps 750 mmHg 45%
12:00 +21°C° 0 mm 2 mps 750 mmHg 41%
13:00 +23°C° 0 mm 2 mps 750 mmHg 38%
14:00 +24°C° 0 mm 3 mps 750 mmHg 34%
15:00 +24°C° 0 mm 2 mps 750 mmHg 37%
16:00 +24°C° 0 mm 2 mps 750 mmHg 39%
17:00 +23°C° 0 mm 1 mps 750 mmHg 42%
18:00 +21°C° 0 mm 1 mps 750 mmHg 47%
19:00 +19°C° 0 mm 1 mps 750 mmHg 52%
20:00 +16°C° 0 mm 1 mps 751 mmHg 57%
21:00 +15°C° 0 mm 0 mps 751 mmHg 58%
22:00 +15°C° 0 mm 0 mps 751 mmHg 58%
23:00 +15°C° 0 mm 0 mps 751 mmHg 58%

5 August, Thursday

Time Temperature Precipitation Wind Pressure Humidity
00:00 +15°C° 0 mm 0 mps 751 mmHg 59%
01:00 +16°C° 0 mm 1 mps 751 mmHg 59%
02:00 +15°C° 0 mm 1 mps 752 mmHg 60%
03:00 +15°C° 0 mm 1 mps 752 mmHg 61%
04:00 +15°C° 0 mm 1 mps 752 mmHg 62%
05:00 +15°C° 0 mm 1 mps 752 mmHg 63%
06:00 +18°C° 0 mm 1 mps 752 mmHg 59%
07:00 +19°C° 0 mm 1 mps 752 mmHg 55%
08:00 +20°C° 0 mm 1 mps 752 mmHg 51%
09:00 +22°C° 0 mm 1 mps 752 mmHg 47%
10:00 +23°C° 0 mm 1 mps 752 mmHg 42%
11:00 +24°C° 0 mm 2 mps 752 mmHg 37%
12:00 +25°C° 0 mm 2 mps 751 mmHg 37%
13:00 +25°C° 0 mm 2 mps 751 mmHg 37%
14:00 +25°C° 0 mm 2 mps 751 mmHg 37%
15:00 +24°C° 0 mm 2 mps 751 mmHg 45%
16:00 +23°C° 0 mm 2 mps 751 mmHg 54%
17:00 +21°C° 0 mm 2 mps 751 mmHg 62%
18:00 +19°C° 0.4 mm 2 mps 751 mmHg 72%
19:00 +17°C° 0.4 mm 2 mps 751 mmHg 83%
20:00 +16°C° 0.4 mm 1 mps 750 mmHg 93%
21:00 +16°C° 0.6 mm 2 mps 750 mmHg 94%
22:00 +15°C° 0.6 mm 2 mps 750 mmHg 96%
23:00 +15°C° 0.6 mm 2 mps 750 mmHg 97%

6 August, Friday

Time Temperature Precipitation Wind Pressure Humidity
00:00 +14°C° 0.7 mm 3 mps 750 mmHg 97%
01:00 +14°C° 0.7 mm 3 mps 750 mmHg 97%
02:00 +14°C° 0.7 mm 3 mps 749 mmHg 97%
03:00 +14°C° 0.1 mm 3 mps 749 mmHg 97%
04:00 +14°C° 0.1 mm 3 mps 749 mmHg 97%
05:00 +14°C° 0.1 mm 3 mps 749 mmHg 97%
06:00 +14°C° 0.1 mm 3 mps 749 mmHg 96%
07:00 +15°C° 0.1 mm 4 mps 749 mmHg 95%
08:00 +15°C° 0.1 mm 4 mps 748 mmHg 94%
09:00 +15°C° 2 mm 4 mps 748 mmHg 95%
10:00 +15°C° 2 mm 4 mps 748 mmHg 96%
11:00 +15°C° 2 mm 4 mps 747 mmHg 97%
12:00 +17°C° 0.1 mm 4 mps 747 mmHg 96%
13:00 +16°C° 0.1 mm 5 mps 747 mmHg 94%
14:00 +17°C° 0.1 mm 5 mps 746 mmHg 92%
15:00 +19°C° 0 mm 5 mps 746 mmHg 86%
16:00 +20°C° 0 mm 5 mps 745 mmHg 80%
17:00 +21°C° 0 mm 5 mps 745 mmHg 74%
18:00 +21°C° 0 mm 5 mps 744 mmHg 74%
19:00 +20°C° 0 mm 5 mps 744 mmHg 74%
20:00 +19°C° 0 mm 5 mps 744 mmHg 75%
21:00 +19°C° 0 mm 4 mps 743 mmHg 74%
22:00 +19°C° 0 mm 4 mps 743 mmHg 73%
23:00 +19°C° 0 mm 4 mps 743 mmHg 72%
Show more

We Need Your Consent

Meteoprog and our Service Providers may store and access personal data such as cookies, device identifiers or other similar technologies on your device and process such data to personalise content and ads, as well as provide social media features and to analyse the traffic.

  • Store and/or access information on your device

    Cookies, device identifiers or other information can be stored or accessed on your device for the purposes indicated above.

  • Personalised ads and content, ad and content measurement, audience insights, and products development

    Ads and content can be personalised based on a profile. More data can be added to better personalise ads and content. Ad and content performance can be measured. Insights about the audience who saw the ads and content can be derived. Such data can be used to develop or improve user’s experience, systems and software.

By clicking ‘I Agree’ you will allow the use of indicated cookies, device identifiers, web beacons or other similar technologies. Your settings can be changed in the browser on your device.

For certain purposes, legitimate interests may be relied on, rather than consent. You can read more about this in our Privacy and Cookie Policy.